STARLINK-11533, 62836

Orbit data source: Space-Track

STARLINK-11533, 62836 is a payload satellite owned by SpaceX/Seattle (US) in LEO that was launched on Mon, 27 Jan 2025 UTC via an FALCON 9 launch vehicle from the Air Force Eastern Test Range (AFETR). Payload-class satellites include a variety of spacecraft equipped with specific instruments for various scientific and technological missions. These include communications satellites like Starlink; space stations such as the ISS; scientific satellites like the Hubble; Earth observation satellites from companies like Planet Labs, Umbra, and HawkEye 360; GPS; miniature CubeSats for education and research; and military/defense satellites.

Loading next visibility...
Identifier
62836, 2025-019H
Orbit
LEO
Country
Flag of USUS
Related business
Manufacturer
SpaceX/Seattle
Mission
Operational Commercial Communications
Bus & Motor
STARLINK V2MD, Unknown motor
Mass
960 kg wet, ~910 kg dry
Launch date (UTC)
2025-01-27 (1 year ago)
Launch vehicle
FALCON 9
Launch site
Air Force Eastern Test Range (AFETR)
Object type
Payload
Rocket body
Debris
Shape & HBR
Box + 2 Pan, 18.1 m
Radar Cross Section
36.964 m², Large (>1 m²)

Expand to show TLE details & history
Last TLE update: 18 hours ago

TLE from 18 hours ago
0 STARLINK-11533
1 62836U 25019H   26174.64352489  .00194739  00000-0  14696-2 0  9994
2 62836  43.0005  27.4062 0002422 252.4107 107.6497 15.71101264 80540
Epoch: 2026-06-23T15:26Z
TLE epoch observation values (Epoch: 2026-06-23T15:26:40.550Z)
Latitude
0.00003°
Longitude
-116.07487°
Altitude
356.014 km
Speed
7.697 km/s
True Right ascension
01h 49m 37s
True Declination
0° 00' 00"
Sunlit
Object was in daylight at epoch
Visualization orbit readout
Latitude
Unknown
Longitude
Unknown
Altitude
Unknown
Speed
Unknown
Apparent Right ascension
Unknown
Apparent Declination
Unknown
Sunlit
N/A
Visualization observer readout
Local Sidereal Time
20:17:00
Azimuth
Unknown
Elevation
Unknown
Doppler factor
Unknown
Orbital elements
Apogee altitude
359.362 km
Perigee altitude
356.099 km
Semi-major axis
6,735.867 km
Eccentricity
0.00024
Inclination
43.0005°
RAAN
27.4062°
Arg. of periapsis
252.4107°
True anomaly
107.67615°
Mean anomaly
107.6497°
Eccentric anomaly
107.66292°
Mean motion
3.92602 °/min
Orbital period
91.7 mins
BSTAR
0.0014696
Loading maneuver chart data...
Computing Atmospheric mass density...
Loading historical data...
Loading historical data...
Loading historical data...
Loading historical data...
Loading historical data...
Loading historical data...
Loading historical data...

Documentation

Showing up to 5 results
|